Tracking 20721 objects as of 1-Jun-2020
HD Live streaming from Space Station
objects crossing your sky now

COSMOS 1275 DEB

Track COSMOS 1275 DEB now!
10-day predictions


NORAD ID: 12692
Int'l Code: 1981-053AL
Perigee: 761.6 km
Apogee: 867.3 km
Inclination: 82.9 °
Period: 101.0 minutes
Semi major axis: 7185 km
RCS: 0.5057 m2 (medium)
Launch date: June 4, 1981
Source: Commonwealth of Independent States (former USSR) (CIS)
Launch site: PLESETSK MISSILE AND SPACE COMPLEX (PKMTR)

Note: This is SATELLITE DEBRIS
aabbcc
Your satellite tracking list
Your tracking list is empty




NASA's NSSDC Master Catalog

Two Line Element Set (TLE):
1 12692U 81053AL  20151.64627807 +.00000250 +00000-0 +96592-4 0  9998
2 12692 082.9012 032.5011 0073585 255.0083 104.2948 14.25353507002776
Source of the keplerian elements: AFSPC